[[{"header":{"parameterUnit":"m.s-1","parameterCategory":1,"la1":30.2991,"la2":30.254,"lo1":-89.0895,"lo2":-89.0444,"dy":0.0017,"dx":0.0017,"nx":28,"ny":28,"refTime":"2024-05-29T03:00:00:Z","depth":0,"parameterNumber":2,"parameterNumberName":"U-component_of_WINDS"},"data":[0,0,0,0,0,0,0,0,0,0,0,0,0,0,0,0,0,0,0,0,0,0,0,0,0,0,0,0,0,0,0,0,0,0,0,0,0,0,0,0,0,0,0,0,0,0,0,0,0,0,0,0,0,0,0,0,0,0,-4.0603,-4.0603,0,-4.0613,-4.0613,-4.0614,-4.0489,-4.0486,-4.0482,-4.0479,-4.0491,-4.0494,-4.0498,0,0,0,0,0,0,0,0,0,0,0,0,0,-4.0476,-4.0479,-4.0603,-4.0603,-4.0603,-4.0613,-4.0614,-4.0614,-4.049,-4.0486,-4.0481,-4.0477,-4.049,-4.0494,-4.0498,0,0,0,0,0,0,0,0,0,0,0,0,0,-4.0514,-4.048,-4.0603,-4.0542,-4.0537,-4.0613,-4.0614,-4.0614,-4.0491,-4.0485,-4.048,-4.0476,-4.0488,-4.0494,-4.0499,-4.0634,0,0,-4.0515,-4.0517,0,0,0,0,0,0,0,0,-4.0512,-4.0518,-4.0551,-4.0547,-4.0541,-4.0545,-4.0573,-4.062,-4.0492,-4.0508,-4.0479,-4.0473,-4.0513,-4.0516,-4.0529,-4.0634,-4.0635,-4.0515,-4.0518,-4.0521,-4.0522,0,0,0,0,0,0,0,-4.0509,-4.0517,-4.0607,-4.0552,-4.0546,-4.0515,-4.0515,-4.0582,-4.0539,-4.0506,-4.0497,-4.05,-4.0509,-4.0524,-4.0529,-4.0635,-4.0515,-4.052,-4.0523,-4.0525,-4.0852,-4.0857,0,0,0,0,0,0,-4.0515,-4.0516,-4.0607,-4.0607,-4.0513,-4.0522,-4.0521,-4.0549,-4.0538,-4.0532,-4.0505,-4.0495,-4.0518,-4.0523,-4.0529,-4.0686,-4.0521,-4.0526,-4.0529,-4.0846,-4.0853,-4.0859,0,0,0,0,0,0,-4.0512,-4.0524,-4.0606,-4.0559,-4.0567,-4.0529,-4.0561,-4.0552,-4.0566,-4.0537,-4.0529,-4.0528,-4.0514,-4.0521,-4.0608,-4.0685,-4.0528,-4.0533,-4.084,-4.0849,-4.0856,-4.1003,0,0,0,0,0,0,-4.0509,-4.0524,-4.0574,-4.0561,-4.057,-4.0686,-4.0566,-4.0555,-4.0576,-4.0563,-4.0557,-4.0551,-4.0511,-4.0601,-4.0614,-4.0689,-4.0537,-4.0833,-4.0844,-4.0854,-4.0991,-4.1015,-4.1036,0,0,0,0,0,-4.0505,-4.0615,-4.0578,-4.0589,-4.0633,-4.0691,-4.0696,-4.0647,-4.0582,-4.0633,-4.0614,-4.0551,-4.0675,-4.0611,-4.0624,-4.0703,-4.0828,-4.0841,-4.0853,-4.0981,-4.101,-4.1035,0,0,0,0,0,0,-4.0638,-4.0612,-4.057,-4.0679,-4.0688,-4.0669,-4.0732,-4.068,-4.0707,-4.0694,-4.0633,-4.0633,-4.0731,-4.0725,-4.0655,-4.0833,-4.074,-4.0756,-4.0833,-4.0861,-4.0883,-4.0882,-4.0541,0,0,0,0,0,-4.068,-4.0729,-4.0704,-4.0802,-4.0809,-4.077,-4.0794,-4.0756,-4.0762,-4.0766,-4.0753,-4.0763,-4.0803,-4.0832,-4.0868,-4.099,-4.0987,-4.105,-4.1072,-4.1091,-4.1105,-4.117,-4.1198,-4.09,-4.09,-4.09,0,0,-4.0767,-4.0759,-4.0794,-4.0829,-4.0831,-4.0884,-4.0774,-4.0834,-4.0873,-4.0775,-4.0856,-4.0848,-4.0855,-4.096,-4.1006,-4.0959,-4.1187,-4.1107,-4.1122,-4.1126,-4.1186,-4.1214,-4.1239,-4.0909,-4.0907,-4.0906,0,0,-4.0953,-4.0952,-4.1034,-4.1039,-4.1044,-4.1018,-4.1038,-4.1027,-4.1018,-4.1099,-4.1027,-4.1072,-4.1144,-4.1152,-4.1165,-4.1356,-4.1299,-4.137,-4.1487,-4.1551,-4.1574,-4.1595,-4.1663,-4.1689,-4.1384,-4.1384,-4.1385,0,-4.1061,-4.1137,-4.1083,-4.1148,-4.1166,-4.108,-4.1163,-4.1171,-4.1188,-4.1203,-4.1149,-4.1238,-4.1236,-4.1343,-4.139,-4.1404,-4.1425,-4.137,-4.1575,-4.1595,-4.1614,-4.1678,-4.1704,-4.1393,-4.1392,-4.1391,-4.139,0,-4.1269,-4.1323,-4.1389,-4.1408,-4.1433,-4.1508,-4.1466,-4.1498,-4.1458,-4.1438,-4.1523,-4.1518,-4.1552,-4.1574,-4.1536,-4.1676,-4.1647,-4.1586,-4.1491,-4.1652,-4.1711,-4.1736,-4.1405,-4.1402,-4.1399,-4.1397,0,0,-4.1538,-4.1527,-4.1552,-4.156,-4.156,-4.1601,-4.1672,-4.1705,-4.1735,-4.175,-4.1808,-4.1871,-4.1815,-4.183,-4.1792,-4.1849,-4.2001,-4.178,-4.178,-4.1822,-4.2157,-4.2203,-4.2232,-4.1964,-4.1968,-4.1972,-4.2156,0,-4.1719,-4.1839,-4.1793,-4.1917,-4.1966,-4.1886,-4.1948,-4.1955,-4.1939,-4.1979,-4.196,-4.2006,-4.1928,-4.1937,-4.1989,-4.1972,-4.2068,-4.1958,-4.2018,-4.2021,-4.2019,-4.2263,-4.2312,-4.2487,-4.2179,-4.2183,-4.2186,0,-4.1946,-4.197,-4.2099,-4.2092,-4.2111,-4.2167,-4.2195,-4.2234,-4.2241,-4.2225,-4.2244,-4.2193,-4.2263,-4.2169,-4.2264,-4.2191,-4.2213,-4.2208,-4.2214,-4.2218,-4.2113,-4.2274,-4.2541,-4.2567,-4.2222,-4.2219,-4.2217,0,-4.2129,-4.2195,-4.228,-4.229,-4.2283,-4.2325,-4.2324,-4.2326,-4.2349,-4.2374,-4.2388,-4.2421,-4.2439,-4.2465,-4.2426,-4.2361,-4.2528,-4.243,-4.2517,-4.2518,-4.2555,-4.2553,-4.283,-4.257,-4.2569,-4.2569,-4.2568,0,-4.2336,-4.2418,-4.2363,-4.2416,-4.2506,-4.2453,-4.2544,-4.2534,-4.2537,-4.2587,-4.252,-4.2568,-4.2513,-4.2557,-4.2526,-4.2611,-4.2619,-4.2608,-4.2599,-4.2615,-4.2616,-4.2628,-4.2615,-4.2576,-4.2574,-4.2573,-4.2572,0,-4.2556,-4.2522,-4.2611,-4.2598,-4.2596,-4.2664,-4.2652,-4.2701,-4.268,-4.2744,-4.2756,-4.2724,-4.2772,-4.2735,-4.2782,-4.2762,-4.2873,-4.2847,-4.2871,-4.2864,-4.2953,-4.2945,-4.3246,-4.3284,-4.3,-4.3003,-4.3005,0,-4.269,-4.2751,-4.2746,-4.2774,-4.2778,-4.2825,-4.2849,-4.28,-4.2827,-4.2841,-4.2889,-4.2931,-4.2962,-4.3042,-4.3023,-4.3059,-4.3033,-4.3137,-4.3038,-4.3052,-4.3035,-4.3032,-4.3039,-4.3157,-4.316,-4.3163,-4.3165,0,-4.2932,-4.2913,-4.2949,-4.2981,-4.3012,-4.3034,-4.3051,-4.3079,-4.3029,-4.3064,-4.3112,-4.3136,-4.3185,-4.3228,-4.3258,-4.3257,-4.3204,-4.3196,-4.3218,-4.3234,-4.3246,-4.3241,-4.2925,-4.3189,-4.3187,-4.3185,-4.3184,-4.3183,-4.3113,-4.3164,-4.3168,-4.3212,-4.322,-4.3238,-4.3283,-4.3269,-4.3308,-4.3344,-4.3313,-4.3371,-4.3378,-4.3412,-4.3418,-4.3464,-4.3421,-4.3453,-4.3461,-4.347,-4.3483,-4.3239,-4.3469,-4.3468,-4.3468,-4.3467,-4.3466,0,-4.3351,-4.335,-4.3391,-4.3418,-4.3453,-4.3399,-4.3416,-4.3449,-4.3501,-4.3512,-4.3544,-4.36,-4.3642,-4.3627,-4.3664,-4.3704,-4.368,-4.3715,-4.3712,-4.3713,-4.3518,-4.3496,-4.3734,-4.3734,-4.3734,-4.3734,-4.3734,-4.3733,-4.3479,-4.3563,-4.3545,-4.3633,-4.3631,-4.3688,-4.3702,-4.3719,-4.3728,-4.3794,-4.3828,-4.3818,-4.3819,-4.3856,-4.3892,-4.3887,-4.3904,-4.3948,-4.3934,-4.3753,-4.3726,-4.3701,-4.3679,-4.3952,-4.3952,-4.4124,-4.4126,-4.4127]},{"header":{"parameterUnit":"m.s-1","parameterCategory":1,"la1":30.2991,"la2":30.254,"lo1":-89.0895,"lo2":-89.0444,"dy":0.0017,"dx":0.0017,"nx":28,"ny":28,"refTime":"2024-05-29T03:00:00:Z","depth":0,"parameterNumber":3,"parameterNumberName":"V-component_of_WINDS"},"data":[0,0,0,0,0,0,0,0,0,0,0,0,0,0,0,0,0,0,0,0,0,0,0,0,0,0,0,0,0,0,0,0,0,0,0,0,0,0,0,0,0,0,0,0,0,0,0,0,0,0,0,0,0,0,0,0,0,0,-2.7835,-2.7834,0,-2.7799,-2.7799,-2.7798,-2.7734,-2.7733,-2.7732,-2.7731,-2.7695,-2.7695,-2.7695,0,0,0,0,0,0,0,0,0,0,0,0,0,-2.7846,-2.7847,-2.7835,-2.7834,-2.7834,-2.7799,-2.7799,-2.7798,-2.7735,-2.7733,-2.7732,-2.773,-2.7695,-2.7695,-2.7696,0,0,0,0,0,0,0,0,0,0,0,0,0,-2.7829,-2.7847,-2.7835,-2.7798,-2.7794,-2.7799,-2.7799,-2.7798,-2.7735,-2.7733,-2.7731,-2.773,-2.7695,-2.7695,-2.7696,-2.7734,0,0,-2.7696,-2.7697,0,0,0,0,0,0,0,0,-2.783,-2.7829,-2.7804,-2.78,-2.7796,-2.7769,-2.779,-2.7777,-2.7735,-2.7758,-2.7731,-2.7729,-2.7721,-2.7719,-2.7717,-2.7732,-2.7731,-2.7696,-2.7697,-2.7697,-2.7697,0,0,0,0,0,0,0,-2.7832,-2.783,-2.7821,-2.7803,-2.7799,-2.7783,-2.7778,-2.7787,-2.775,-2.7755,-2.7751,-2.7747,-2.7719,-2.7717,-2.7715,-2.773,-2.7696,-2.7697,-2.7697,-2.7697,-2.7773,-2.7775,0,0,0,0,0,0,-2.7838,-2.7831,-2.7822,-2.782,-2.7809,-2.7784,-2.7779,-2.778,-2.775,-2.7744,-2.7749,-2.7745,-2.7717,-2.7715,-2.7714,-2.7756,-2.7697,-2.7697,-2.7697,-2.7772,-2.7774,-2.7776,0,0,0,0,0,0,-2.7839,-2.7838,-2.7823,-2.7824,-2.7821,-2.7786,-2.7787,-2.778,-2.7778,-2.7745,-2.7738,-2.7753,-2.7716,-2.7714,-2.7729,-2.7754,-2.7697,-2.7697,-2.7769,-2.7772,-2.7775,-2.7841,0,0,0,0,0,0,-2.7839,-2.7839,-2.7853,-2.7825,-2.7821,-2.7839,-2.7789,-2.7781,-2.7778,-2.7772,-2.7747,-2.7741,-2.7714,-2.7729,-2.7729,-2.7753,-2.7698,-2.7767,-2.7771,-2.7774,-2.7836,-2.7845,-2.7853,0,0,0,0,0,-2.784,-2.7874,-2.7854,-2.7853,-2.7839,-2.7841,-2.7839,-2.7806,-2.7781,-2.7795,-2.7773,-2.7742,-2.7751,-2.7731,-2.7731,-2.7755,-2.7765,-2.777,-2.7774,-2.7832,-2.7843,-2.7853,0,0,0,0,0,0,-2.7906,-2.7869,-2.7847,-2.7873,-2.786,-2.783,-2.7847,-2.782,-2.7814,-2.7809,-2.7769,-2.7764,-2.7784,-2.7771,-2.775,-2.779,-2.7753,-2.7757,-2.7798,-2.7808,-2.7816,-2.7819,-2.7698,0,0,0,0,0,-2.7924,-2.7929,-2.7896,-2.7922,-2.7916,-2.7883,-2.7883,-2.7859,-2.7844,-2.7839,-2.7818,-2.7806,-2.7805,-2.7806,-2.7804,-2.7834,-2.7827,-2.785,-2.7859,-2.7866,-2.787,-2.7883,-2.7893,-2.779,-2.779,-2.7789,0,0,-2.796,-2.794,-2.7946,-2.7934,-2.7922,-2.7927,-2.7879,-2.7887,-2.7891,-2.784,-2.7853,-2.7838,-2.782,-2.7843,-2.7852,-2.7833,-2.7897,-2.7871,-2.7877,-2.7877,-2.7889,-2.7898,-2.7907,-2.7792,-2.7792,-2.7791,0,0,-2.8029,-2.8015,-2.8034,-2.8022,-2.8004,-2.7981,-2.7985,-2.7959,-2.7946,-2.7959,-2.792,-2.7924,-2.7924,-2.7913,-2.7907,-2.797,-2.7941,-2.7971,-2.8015,-2.8029,-2.8037,-2.8044,-2.8065,-2.8074,-2.7975,-2.7975,-2.7975,0,-2.8077,-2.8083,-2.8048,-2.8058,-2.8053,-2.8007,-2.8025,-2.8015,-2.7997,-2.7995,-2.7974,-2.7972,-2.7957,-2.7976,-2.7991,-2.7988,-2.7992,-2.7973,-2.8039,-2.8045,-2.8051,-2.8071,-2.808,-2.7979,-2.7978,-2.7978,-2.7978,0,-2.8142,-2.8148,-2.8165,-2.8148,-2.8145,-2.816,-2.8126,-2.8127,-2.8103,-2.8082,-2.8095,-2.8075,-2.8067,-2.807,-2.8047,-2.8085,-2.8073,-2.8046,-2.8008,-2.8065,-2.8083,-2.8091,-2.7984,-2.7983,-2.7982,-2.7981,0,0,-2.8253,-2.8215,-2.8222,-2.8213,-2.8188,-2.8191,-2.8203,-2.8195,-2.8196,-2.8185,-2.8193,-2.8194,-2.8168,-2.8162,-2.8137,-2.8148,-2.8198,-2.8119,-2.8118,-2.8134,-2.8237,-2.8258,-2.8267,-2.8178,-2.818,-2.8181,-2.8238,0,-2.8316,-2.8334,-2.8301,-2.8327,-2.8331,-2.8286,-2.8295,-2.8281,-2.8262,-2.8262,-2.824,-2.8241,-2.8207,-2.8203,-2.8212,-2.819,-2.8218,-2.8185,-2.8185,-2.8185,-2.8191,-2.8277,-2.8299,-2.8354,-2.8245,-2.8246,-2.8247,0,-2.8393,-2.8384,-2.841,-2.8382,-2.8383,-2.8392,-2.8381,-2.8382,-2.8364,-2.8349,-2.8341,-2.8311,-2.832,-2.8284,-2.8295,-2.8273,-2.8271,-2.826,-2.8261,-2.826,-2.822,-2.8277,-2.8371,-2.8379,-2.8258,-2.8257,-2.8256,0,-2.847,-2.8465,-2.8479,-2.8473,-2.8441,-2.8449,-2.8436,-2.8416,-2.8413,-2.8403,-2.8401,-2.8393,-2.8388,-2.8382,-2.835,-2.8327,-2.8365,-2.8326,-2.8352,-2.8353,-2.8362,-2.8362,-2.8456,-2.8361,-2.8361,-2.8361,-2.8361,0,-2.8544,-2.8562,-2.8514,-2.8523,-2.854,-2.8502,-2.852,-2.8502,-2.8485,-2.8489,-2.845,-2.8454,-2.8412,-2.8412,-2.8387,-2.8399,-2.8398,-2.8385,-2.8378,-2.8388,-2.839,-2.8386,-2.8382,-2.8363,-2.8363,-2.8362,-2.8362,0,-2.8634,-2.8602,-2.8615,-2.8583,-2.8575,-2.859,-2.8562,-2.8568,-2.8546,-2.8551,-2.8551,-2.8515,-2.8513,-2.848,-2.8471,-2.8454,-2.8476,-2.8462,-2.8482,-2.8477,-2.8504,-2.8502,-2.86,-2.861,-2.8509,-2.851,-2.8511,0,-2.8683,-2.8695,-2.8664,-2.8664,-2.8652,-2.8653,-2.8649,-2.8611,-2.8608,-2.8588,-2.8597,-2.8591,-2.8584,-2.8582,-2.8555,-2.8548,-2.8533,-2.8567,-2.8531,-2.8541,-2.8532,-2.8532,-2.8532,-2.8575,-2.8577,-2.8578,-2.8579,0,-2.8773,-2.8757,-2.8753,-2.8743,-2.8739,-2.873,-2.8718,-2.8719,-2.8678,-2.8677,-2.8673,-2.8668,-2.8658,-2.8652,-2.8639,-2.8625,-2.8595,-2.859,-2.8595,-2.8606,-2.8617,-2.861,-2.8502,-2.8588,-2.8587,-2.8586,-2.8586,-2.8585,-2.8843,-2.8852,-2.8831,-2.8827,-2.8814,-2.8803,-2.8807,-2.8784,-2.8781,-2.8769,-2.8747,-2.8747,-2.8727,-2.8706,-2.8695,-2.8693,-2.8675,-2.8684,-2.8685,-2.8688,-2.8693,-2.8617,-2.8691,-2.8691,-2.869,-2.869,-2.869,0,-2.8931,-2.8915,-2.8912,-2.8896,-2.8893,-2.8864,-2.8848,-2.8848,-2.8848,-2.8832,-2.8826,-2.8821,-2.8815,-2.8787,-2.8778,-2.8782,-2.8768,-2.8781,-2.878,-2.8777,-2.871,-2.8706,-2.8792,-2.8792,-2.8792,-2.8792,-2.8792,-2.8792,-2.8976,-2.8988,-2.8969,-2.8973,-2.8956,-2.8956,-2.8949,-2.8939,-2.8926,-2.8922,-2.8917,-2.8898,-2.8877,-2.8866,-2.8858,-2.885,-2.8848,-2.8866,-2.8853,-2.8792,-2.8782,-2.8772,-2.8768,-2.8866,-2.8866,-2.892,-2.892,-2.8921]}]]